Location: Gudip?du
(17.0263°N, 80.8301°E)
Time: 07:37:08
(UTC+00:00)

ARIANE 6 FM1 Upper Stage - Pass Details

Date: 03 August 2024
Orbit: 567 x 594 km, 62.0° (Epoch: 10 September)

Event Time Altitude Azimuth Distance (km) Brightness Sun altitude
Rises 13:37:09 0° 345° (NNW) 2,828 6.8 -7.3°
Reaches altitude 10° 13:39:33 10° 354° (N) 1,923 5.8 -7.9°
Maximum altitude 13:43:34 36° 61° (ENE) 946 3.5 -8.7°
Enters shadow 13:47:16 12° 127° (SE) 1,807 4.6 -9.6°
